Year,Month,Day,Hour,Minute,Value (Times are PST for temperature in C)
2009,09,25,00,00,13.30
2009,09,25,00,01,13.30
2009,09,25,00,02,13.30
2009,09,25,00,03,13.30
2009,09,25,00,04,13.30
2009,09,25,00,05,13.30
2009,09,25,00,06,13.30
2009,09,25,00,07,13.30
2009,09,25,00,08,13.30
2009,09,25,00,09,13.30
2009,09,25,00,10,13.30
2009,09,25,00,11,13.30
2009,09,25,00,12,13.30
2009,09,25,00,13,13.30
2009,09,25,00,14,13.30
2009,09,25,00,15,13.30
2009,09,25,00,16,13.30
2009,09,25,00,17,13.30
2009,09,25,00,18,13.30
2009,09,25,00,19,13.30
2009,09,25,00,20,13.30
2009,09,25,00,21,13.30
2009,09,25,00,22,13.30
2009,09,25,00,23,13.30
2009,09,25,00,24,13.20
2009,09,25,00,25,13.20
2009,09,25,00,26,13.20
2009,09,25,00,27,13.20
2009,09,25,00,28,13.20
2009,09,25,00,29,13.20
2009,09,25,00,30,13.20
2009,09,25,00,31,13.20
2009,09,25,00,32,13.20
2009,09,25,00,33,13.20
2009,09,25,00,34,13.20
2009,09,25,00,35,13.20
2009,09,25,00,36,13.20
2009,09,25,00,37,13.20
2009,09,25,00,38,13.20
2009,09,25,00,39,13.20
2009,09,25,00,40,13.20
2009,09,25,00,41,13.20
2009,09,25,00,42,13.20
2009,09,25,00,43,13.20
2009,09,25,00,44,13.20
2009,09,25,00,45,13.20
2009,09,25,00,46,13.20
2009,09,25,00,47,13.20
2009,09,25,00,48,13.20
2009,09,25,00,49,13.30
2009,09,25,00,50,13.30
2009,09,25,00,51,13.30
2009,09,25,00,52,13.30
2009,09,25,00,53,13.30
2009,09,25,00,54,13.30
2009,09,25,00,55,13.30
2009,09,25,00,56,13.30
2009,09,25,00,57,13.30
2009,09,25,00,58,13.30
2009,09,25,00,59,13.30
2009,09,25,01,00,13.30
2009,09,25,01,01,13.20
2009,09,25,01,02,13.20
2009,09,25,01,03,13.20
2009,09,25,01,04,13.20
2009,09,25,01,05,13.10
2009,09,25,01,06,13.10
2009,09,25,01,07,13.10
2009,09,25,01,08,13.10
2009,09,25,01,09,13.00
2009,09,25,01,10,13.00
2009,09,25,01,11,13.00
2009,09,25,01,12,13.00
2009,09,25,01,13,13.00
2009,09,25,01,14,13.00
2009,09,25,01,15,13.10
2009,09,25,01,16,13.10
2009,09,25,01,17,13.10
2009,09,25,01,18,13.10
2009,09,25,01,19,13.10
2009,09,25,01,20,13.10
2009,09,25,01,21,13.10
2009,09,25,01,22,13.10
2009,09,25,01,23,13.10
2009,09,25,01,24,13.10
2009,09,25,01,25,13.10
2009,09,25,01,26,13.10
2009,09,25,01,27,13.10
2009,09,25,01,28,13.10
2009,09,25,01,29,13.10
2009,09,25,01,30,13.10
2009,09,25,01,31,13.10
2009,09,25,01,32,13.10
2009,09,25,01,33,13.10
2009,09,25,01,34,13.10
2009,09,25,01,35,13.10
2009,09,25,01,36,13.10
2009,09,25,01,37,13.10
2009,09,25,01,38,13.10
2009,09,25,01,39,13.10
2009,09,25,01,40,13.00
2009,09,25,01,41,13.00
2009,09,25,01,42,13.00
2009,09,25,01,43,13.00
2009,09,25,01,44,13.00
2009,09,25,01,45,12.90
2009,09,25,01,46,12.90
2009,09,25,01,47,12.90
2009,09,25,01,48,12.90
2009,09,25,01,49,12.90
2009,09,25,01,50,12.90
2009,09,25,01,51,12.90
2009,09,25,01,52,12.90
2009,09,25,01,53,12.90
2009,09,25,01,54,12.90
2009,09,25,01,55,12.90
2009,09,25,01,56,12.90
2009,09,25,01,57,12.90
2009,09,25,01,58,12.90
2009,09,25,01,59,12.80
2009,09,25,02,00,12.80
2009,09,25,02,01,12.80
2009,09,25,02,02,12.80
2009,09,25,02,03,12.80
2009,09,25,02,04,12.80
2009,09,25,02,05,12.80
2009,09,25,02,06,12.80
2009,09,25,02,07,12.80
2009,09,25,02,08,12.80
2009,09,25,02,09,12.80
2009,09,25,02,10,12.80
2009,09,25,02,11,12.80
2009,09,25,02,12,12.80
2009,09,25,02,13,12.70
2009,09,25,02,14,12.70
2009,09,25,02,15,12.70
2009,09,25,02,16,12.70
2009,09,25,02,17,12.70
2009,09,25,02,18,12.70
2009,09,25,02,19,12.70
2009,09,25,02,20,12.70
2009,09,25,02,21,12.70
2009,09,25,02,22,12.70
2009,09,25,02,23,12.70
2009,09,25,02,24,12.70
2009,09,25,02,25,12.70
2009,09,25,02,26,12.70
2009,09,25,02,27,12.70
2009,09,25,02,28,12.70
2009,09,25,02,29,12.70
2009,09,25,02,30,12.70
2009,09,25,02,31,12.70
2009,09,25,02,32,12.70
2009,09,25,02,33,12.70
2009,09,25,02,34,12.70
2009,09,25,02,35,12.70
2009,09,25,02,36,12.70
2009,09,25,02,37,12.70
2009,09,25,02,38,12.70
2009,09,25,02,39,12.70
2009,09,25,02,40,12.70
2009,09,25,02,41,12.70
2009,09,25,02,42,12.70
2009,09,25,02,43,12.70
2009,09,25,02,44,12.70
2009,09,25,02,45,12.70
2009,09,25,02,46,12.70
2009,09,25,02,47,12.70
2009,09,25,02,48,12.70
2009,09,25,02,49,12.70
2009,09,25,02,50,12.70
2009,09,25,02,51,12.70
2009,09,25,02,52,12.70
2009,09,25,02,53,12.70
2009,09,25,02,54,12.80
2009,09,25,02,55,12.80
2009,09,25,02,56,12.80
2009,09,25,02,57,12.80
2009,09,25,02,58,12.70
2009,09,25,02,59,12.70
2009,09,25,03,00,12.70
2009,09,25,03,01,12.70
2009,09,25,03,02,12.70
2009,09,25,03,03,12.70
2009,09,25,03,04,12.70
2009,09,25,03,05,12.60
2009,09,25,03,06,12.60
2009,09,25,03,07,12.60
2009,09,25,03,08,12.60
2009,09,25,03,09,12.50
2009,09,25,03,10,12.50
2009,09,25,03,11,12.50
2009,09,25,03,12,12.40
2009,09,25,03,13,12.40
2009,09,25,03,14,12.40
2009,09,25,03,15,12.40
2009,09,25,03,16,12.30
2009,09,25,03,17,12.30
2009,09,25,03,18,12.30
2009,09,25,03,19,12.30
2009,09,25,03,20,12.30
2009,09,25,03,21,12.30
2009,09,25,03,22,12.20
2009,09,25,03,23,12.20
2009,09,25,03,24,12.20
2009,09,25,03,25,12.20
2009,09,25,03,26,12.20
2009,09,25,03,27,12.20
2009,09,25,03,28,12.20
2009,09,25,03,29,12.20
2009,09,25,03,30,12.20
2009,09,25,03,31,12.10
2009,09,25,03,32,12.10
2009,09,25,03,33,12.10
2009,09,25,03,34,12.10
2009,09,25,03,35,12.10
2009,09,25,03,36,12.00
2009,09,25,03,37,12.00
2009,09,25,03,38,12.00
2009,09,25,03,39,11.90
2009,09,25,03,40,11.90
2009,09,25,03,41,11.90
2009,09,25,03,42,11.90
2009,09,25,03,43,11.90
2009,09,25,03,44,11.90
2009,09,25,03,45,11.90
2009,09,25,03,46,11.90
2009,09,25,03,47,11.90
2009,09,25,03,48,11.90
2009,09,25,03,49,11.90
2009,09,25,03,50,11.90
2009,09,25,03,51,11.90
2009,09,25,03,52,11.90
2009,09,25,03,53,12.00
2009,09,25,03,54,12.00
2009,09,25,03,55,12.00
2009,09,25,03,56,12.00
2009,09,25,03,57,12.00
2009,09,25,03,58,12.10
2009,09,25,03,59,12.10
2009,09,25,04,00,12.10
2009,09,25,04,01,12.10
2009,09,25,04,02,12.10
2009,09,25,04,03,12.10
2009,09,25,04,04,12.10
2009,09,25,04,05,12.10
2009,09,25,04,06,12.10
2009,09,25,04,07,12.10
2009,09,25,04,08,12.10
2009,09,25,04,09,12.10
2009,09,25,04,10,12.10
2009,09,25,04,11,12.10
2009,09,25,04,12,12.10
2009,09,25,04,13,12.10
2009,09,25,04,14,12.10
2009,09,25,04,15,12.00
2009,09,25,04,16,12.00
2009,09,25,04,17,12.00
2009,09,25,04,18,11.90
2009,09,25,04,19,12.00
2009,09,25,04,20,11.90
2009,09,25,04,21,11.90
2009,09,25,04,22,11.90
2009,09,25,04,23,11.90
2009,09,25,04,24,11.90
2009,09,25,04,25,11.90
2009,09,25,04,26,11.90
2009,09,25,04,27,11.90
2009,09,25,04,28,11.90
2009,09,25,04,29,11.90
2009,09,25,04,30,11.90
2009,09,25,04,31,11.80
2009,09,25,04,32,11.80
2009,09,25,04,33,11.80
2009,09,25,04,34,11.80
2009,09,25,04,35,11.80
2009,09,25,04,36,11.80
2009,09,25,04,37,11.80
2009,09,25,04,38,11.80
2009,09,25,04,39,11.80
2009,09,25,04,40,11.80
2009,09,25,04,41,11.80
2009,09,25,04,42,11.80
2009,09,25,04,43,11.80
2009,09,25,04,44,11.80
2009,09,25,04,45,11.80
2009,09,25,04,46,11.80
2009,09,25,04,47,11.80
2009,09,25,04,48,11.80
2009,09,25,04,49,11.80
2009,09,25,04,50,11.80
2009,09,25,04,51,11.70
2009,09,25,04,52,11.70
2009,09,25,04,53,11.80
2009,09,25,04,54,11.80
2009,09,25,04,55,11.80
2009,09,25,04,56,11.80
2009,09,25,04,57,11.80
2009,09,25,04,58,11.80
2009,09,25,04,59,11.80
2009,09,25,05,00,11.80
2009,09,25,05,01,11.80
2009,09,25,05,02,11.70
2009,09,25,05,03,11.70
2009,09,25,05,04,11.70
2009,09,25,05,05,11.70
2009,09,25,05,06,11.70
2009,09,25,05,07,11.60
2009,09,25,05,08,11.60
2009,09,25,05,09,11.60
2009,09,25,05,10,11.60
2009,09,25,05,11,11.60
2009,09,25,05,12,11.60
2009,09,25,05,13,11.60
2009,09,25,05,14,11.60
2009,09,25,05,15,11.60
2009,09,25,05,16,11.60
2009,09,25,05,17,11.60
2009,09,25,05,18,11.60
2009,09,25,05,19,11.60
2009,09,25,05,20,11.60
2009,09,25,05,21,11.60
2009,09,25,05,22,11.60
2009,09,25,05,23,11.60
2009,09,25,05,24,11.60
2009,09,25,05,25,11.70
2009,09,25,05,26,11.70
2009,09,25,05,27,11.70
2009,09,25,05,28,11.70
2009,09,25,05,29,11.70
2009,09,25,05,30,11.70
2009,09,25,05,31,11.70
2009,09,25,05,32,11.70
2009,09,25,05,33,11.70
2009,09,25,05,34,11.70
2009,09,25,05,35,11.70
2009,09,25,05,36,11.70
2009,09,25,05,37,11.60
2009,09,25,05,38,11.60
2009,09,25,05,39,11.60
2009,09,25,05,40,11.50
2009,09,25,05,41,11.50
2009,09,25,05,42,11.50
2009,09,25,05,43,11.50
2009,09,25,05,44,11.50
2009,09,25,05,45,11.40
2009,09,25,05,46,11.40
2009,09,25,05,47,11.40
2009,09,25,05,48,11.40
2009,09,25,05,49,11.40
2009,09,25,05,50,11.40
2009,09,25,05,51,11.40
2009,09,25,05,52,11.40
2009,09,25,05,53,11.40
2009,09,25,05,54,11.40
2009,09,25,05,55,11.40
2009,09,25,05,56,11.40
2009,09,25,05,57,11.40
2009,09,25,05,58,11.40
2009,09,25,05,59,11.40
2009,09,25,06,00,11.40
2009,09,25,06,01,11.40
2009,09,25,06,02,11.40
2009,09,25,06,03,11.50
2009,09,25,06,04,11.50
2009,09,25,06,05,11.50
2009,09,25,06,06,11.60
2009,09,25,06,07,11.60
2009,09,25,06,08,11.60
2009,09,25,06,09,11.60
2009,09,25,06,10,11.60
2009,09,25,06,11,11.60
2009,09,25,06,12,11.60
2009,09,25,06,13,11.50
2009,09,25,06,14,11.50
2009,09,25,06,15,11.50
2009,09,25,06,16,11.50
2009,09,25,06,17,11.50
2009,09,25,06,18,11.50
2009,09,25,06,19,11.50
2009,09,25,06,20,11.50
2009,09,25,06,21,11.50
2009,09,25,06,22,11.50
2009,09,25,06,23,11.50
2009,09,25,06,24,11.50
2009,09,25,06,25,11.50
2009,09,25,06,26,11.40
2009,09,25,06,27,11.50
2009,09,25,06,28,11.50
2009,09,25,06,29,11.50
2009,09,25,06,30,11.50
2009,09,25,06,31,11.50
2009,09,25,06,32,11.50
2009,09,25,06,33,11.50
2009,09,25,06,34,11.50
2009,09,25,06,35,11.50
2009,09,25,06,36,11.40
2009,09,25,06,37,11.40
2009,09,25,06,38,11.40
2009,09,25,06,39,11.40
2009,09,25,06,40,11.40
2009,09,25,06,41,11.40
2009,09,25,06,42,11.40
2009,09,25,06,43,11.40
2009,09,25,06,44,11.40
2009,09,25,06,45,11.40
2009,09,25,06,46,11.40
2009,09,25,06,47,11.40
2009,09,25,06,48,11.40
2009,09,25,06,49,11.40
2009,09,25,06,50,11.40
2009,09,25,06,51,11.40
2009,09,25,06,52,11.50
2009,09,25,06,53,11.50
2009,09,25,06,54,11.50
2009,09,25,06,55,11.60
2009,09,25,06,56,11.60
2009,09,25,06,57,11.60
2009,09,25,06,58,11.60
2009,09,25,06,59,11.60
2009,09,25,07,00,11.60
2009,09,25,07,01,11.60
2009,09,25,07,02,11.60
2009,09,25,07,03,11.60
2009,09,25,07,04,11.60
2009,09,25,07,05,11.60
2009,09,25,07,06,11.60
2009,09,25,07,07,11.60
2009,09,25,07,08,11.60
2009,09,25,07,09,11.60
2009,09,25,07,10,11.60
2009,09,25,07,11,11.60
2009,09,25,07,12,11.60
2009,09,25,07,13,11.60
2009,09,25,07,14,11.60
2009,09,25,07,15,11.60
2009,09,25,07,16,11.60
2009,09,25,07,17,11.60
2009,09,25,07,18,11.60
2009,09,25,07,19,11.60
2009,09,25,07,20,11.60
2009,09,25,07,21,11.70
2009,09,25,07,22,11.70
2009,09,25,07,23,11.70
2009,09,25,07,24,11.70
2009,09,25,07,25,11.70
2009,09,25,07,26,11.70
2009,09,25,07,27,11.70
2009,09,25,07,28,11.70
2009,09,25,07,29,11.60
2009,09,25,07,30,11.70
2009,09,25,07,31,11.70
2009,09,25,07,32,11.70
2009,09,25,07,33,11.70
2009,09,25,07,34,11.70
2009,09,25,07,35,11.80
2009,09,25,07,36,11.80
2009,09,25,07,37,11.80
2009,09,25,07,38,11.80
2009,09,25,07,39,11.80
2009,09,25,07,40,11.80
2009,09,25,07,41,11.80
2009,09,25,07,42,11.80
2009,09,25,07,43,11.80
2009,09,25,07,44,11.80
2009,09,25,07,45,11.80
2009,09,25,07,46,11.80
2009,09,25,07,47,11.80
2009,09,25,07,48,11.80
2009,09,25,07,49,11.80
2009,09,25,07,50,11.80
2009,09,25,07,51,11.80
2009,09,25,07,52,11.80
2009,09,25,07,53,11.80
2009,09,25,07,54,11.80
2009,09,25,07,55,11.80
2009,09,25,07,56,11.80
2009,09,25,07,57,11.80
2009,09,25,07,58,11.80
2009,09,25,07,59,11.80
2009,09,25,08,00,11.80
2009,09,25,08,01,11.80
2009,09,25,08,02,11.80
2009,09,25,08,03,11.80
2009,09,25,08,04,11.80
2009,09,25,08,05,11.80
2009,09,25,08,06,11.80
2009,09,25,08,07,11.80
2009,09,25,08,08,11.80
2009,09,25,08,09,11.80
2009,09,25,08,10,11.80
2009,09,25,08,11,11.80
2009,09,25,08,12,11.80
2009,09,25,08,13,11.80
2009,09,25,08,14,11.80
2009,09,25,08,15,11.80
2009,09,25,08,16,11.80
2009,09,25,08,17,11.80
2009,09,25,08,18,11.90
2009,09,25,08,19,11.90
2009,09,25,08,20,11.90
2009,09,25,08,21,11.90
2009,09,25,08,22,12.00
2009,09,25,08,23,12.00
2009,09,25,08,24,12.00
2009,09,25,08,25,12.10
2009,09,25,08,26,12.10
2009,09,25,08,27,12.10
2009,09,25,08,28,12.10
2009,09,25,08,29,12.10
2009,09,25,08,30,12.10
2009,09,25,08,31,12.20
2009,09,25,08,32,12.20
2009,09,25,08,33,12.20
2009,09,25,08,34,12.20
2009,09,25,08,35,12.20
2009,09,25,08,36,12.20
2009,09,25,08,37,12.30
2009,09,25,08,38,12.30
2009,09,25,08,39,12.30
2009,09,25,08,40,12.30
2009,09,25,08,41,12.30
2009,09,25,08,42,12.30
2009,09,25,08,43,12.40
2009,09,25,08,44,12.40
2009,09,25,08,45,12.40
2009,09,25,08,46,12.50
2009,09,25,08,47,12.50
2009,09,25,08,48,12.60
2009,09,25,08,49,12.60
2009,09,25,08,50,12.60
2009,09,25,08,51,12.70
2009,09,25,08,52,12.70
2009,09,25,08,53,12.80
2009,09,25,08,54,12.80
2009,09,25,08,55,12.80
2009,09,25,08,56,12.90
2009,09,25,08,57,12.90
2009,09,25,08,58,13.00
2009,09,25,08,59,13.00
2009,09,25,09,00,13.10
2009,09,25,09,01,13.10
2009,09,25,09,02,13.10
2009,09,25,09,03,13.20
2009,09,25,09,04,13.20
2009,09,25,09,05,13.30
2009,09,25,09,06,13.30
2009,09,25,09,07,13.30
2009,09,25,09,08,13.40
2009,09,25,09,09,13.50
2009,09,25,09,10,13.50
2009,09,25,09,11,13.60
2009,09,25,09,12,13.60
2009,09,25,09,13,13.60
2009,09,25,09,14,13.60
2009,09,25,09,15,13.60
2009,09,25,09,16,13.60
2009,09,25,09,17,13.60
2009,09,25,09,18,13.70
2009,09,25,09,19,13.70
2009,09,25,09,20,13.70
2009,09,25,09,21,13.80
2009,09,25,09,22,13.80
2009,09,25,09,23,13.80
2009,09,25,09,24,13.80
2009,09,25,09,25,13.80
2009,09,25,09,26,13.90
2009,09,25,09,27,13.90
2009,09,25,09,28,13.90
2009,09,25,09,29,14.00
2009,09,25,09,30,14.00
2009,09,25,09,31,14.10
2009,09,25,09,32,14.10
2009,09,25,09,33,14.20
2009,09,25,09,34,14.20
2009,09,25,09,35,14.30
2009,09,25,09,36,14.30
2009,09,25,09,37,14.40
2009,09,25,09,38,14.40
2009,09,25,09,39,14.50
2009,09,25,09,40,14.50
2009,09,25,09,41,14.50
2009,09,25,09,42,14.60
2009,09,25,09,43,14.60
2009,09,25,09,44,14.70
2009,09,25,09,45,14.70
2009,09,25,09,46,14.70
2009,09,25,09,47,14.80
2009,09,25,09,48,14.80
2009,09,25,09,49,14.80
2009,09,25,09,50,14.80
2009,09,25,09,51,14.90
2009,09,25,09,52,14.90
2009,09,25,09,53,14.90
2009,09,25,09,54,14.90
2009,09,25,09,55,14.90
2009,09,25,09,56,14.90
2009,09,25,09,57,14.90
2009,09,25,09,58,15.00
2009,09,25,09,59,15.00
2009,09,25,10,00,15.00
2009,09,25,10,01,15.00
2009,09,25,10,02,15.00
2009,09,25,10,03,15.00
2009,09,25,10,04,15.00
2009,09,25,10,05,15.00
2009,09,25,10,06,15.00
2009,09,25,10,07,15.00
2009,09,25,10,08,15.00
2009,09,25,10,09,15.00
2009,09,25,10,10,15.00
2009,09,25,10,11,15.00
2009,09,25,10,12,15.00
2009,09,25,10,13,15.00
2009,09,25,10,14,15.00
2009,09,25,10,15,15.00
2009,09,25,10,16,15.00
2009,09,25,10,17,15.00
2009,09,25,10,18,15.00
2009,09,25,10,19,15.00
2009,09,25,10,20,15.00
2009,09,25,10,21,15.00
2009,09,25,10,22,15.10
2009,09,25,10,23,15.10
2009,09,25,10,24,15.10
2009,09,25,10,25,15.10
2009,09,25,10,26,15.00
2009,09,25,10,27,15.00
2009,09,25,10,28,15.00
2009,09,25,10,29,15.00
2009,09,25,10,30,15.00
2009,09,25,10,31,15.00
2009,09,25,10,32,15.00
2009,09,25,10,33,15.00
2009,09,25,10,34,15.00
2009,09,25,10,35,14.90
2009,09,25,10,36,14.80
2009,09,25,10,37,14.80
2009,09,25,10,38,14.80
2009,09,25,10,39,14.80
2009,09,25,10,40,14.80
2009,09,25,10,41,14.70
2009,09,25,10,42,14.70
2009,09,25,10,43,14.70
2009,09,25,10,44,14.60
2009,09,25,10,45,14.60
2009,09,25,10,46,14.60
2009,09,25,10,47,14.50
2009,09,25,10,48,14.40
2009,09,25,10,49,14.40
2009,09,25,10,50,14.40
2009,09,25,10,51,14.30
2009,09,25,10,52,14.40
2009,09,25,10,53,14.40
2009,09,25,10,54,14.40
2009,09,25,10,55,14.40
2009,09,25,10,56,14.30
2009,09,25,10,57,14.30
2009,09,25,10,58,14.40
2009,09,25,10,59,14.50
2009,09,25,11,00,14.60
2009,09,25,11,01,14.70
2009,09,25,11,02,14.70
2009,09,25,11,03,14.70
2009,09,25,11,04,14.80
2009,09,25,11,05,14.80
2009,09,25,11,06,14.90
2009,09,25,11,07,15.00
2009,09,25,11,08,15.00
2009,09,25,11,09,15.00
2009,09,25,11,10,15.00
2009,09,25,11,11,15.00
2009,09,25,11,12,15.00
2009,09,25,11,13,15.00
2009,09,25,11,14,15.00
2009,09,25,11,15,15.00
2009,09,25,11,16,15.00
2009,09,25,11,17,15.00
2009,09,25,11,18,14.90
2009,09,25,11,19,14.90
2009,09,25,11,20,14.90
2009,09,25,11,21,15.00
2009,09,25,11,22,15.00
2009,09,25,11,23,15.00
2009,09,25,11,24,15.00
2009,09,25,11,25,15.00
2009,09,25,11,26,15.00
2009,09,25,11,27,15.00
2009,09,25,11,28,15.00
2009,09,25,11,29,15.00
2009,09,25,11,30,15.00
2009,09,25,11,31,15.00
2009,09,25,11,32,15.00
2009,09,25,11,33,15.00
2009,09,25,11,34,15.00
2009,09,25,11,35,15.00
2009,09,25,11,36,15.10
2009,09,25,11,37,15.10
2009,09,25,11,38,15.20
2009,09,25,11,39,15.20
2009,09,25,11,40,15.20
2009,09,25,11,41,15.00
2009,09,25,11,42,15.00
2009,09,25,11,43,15.00
2009,09,25,11,44,15.10
2009,09,25,11,45,15.20
2009,09,25,11,46,15.30
2009,09,25,11,47,15.30
2009,09,25,11,48,15.40
2009,09,25,11,49,15.40
2009,09,25,11,50,15.40
2009,09,25,11,51,15.40
2009,09,25,11,52,15.50
2009,09,25,11,53,15.50
2009,09,25,11,54,15.50
2009,09,25,11,55,15.50
2009,09,25,11,56,15.50
2009,09,25,11,57,15.40
2009,09,25,11,58,15.50
2009,09,25,11,59,15.50
2009,09,25,12,00,15.60
2009,09,25,12,01,15.70
2009,09,25,12,02,15.70
2009,09,25,12,03,15.70
2009,09,25,12,04,15.70
2009,09,25,12,05,15.60
2009,09,25,12,06,15.50
2009,09,25,12,07,15.40
2009,09,25,12,08,15.40
2009,09,25,12,09,15.40
2009,09,25,12,10,15.40
2009,09,25,12,11,15.40
2009,09,25,12,12,15.50
2009,09,25,12,13,15.60
2009,09,25,12,14,15.70
2009,09,25,12,15,15.70
2009,09,25,12,16,15.70
2009,09,25,12,17,15.70
2009,09,25,12,18,15.70
2009,09,25,12,19,15.70
2009,09,25,12,20,15.70
2009,09,25,12,21,15.70
2009,09,25,12,22,15.80
2009,09,25,12,23,15.90
2009,09,25,12,24,15.90
2009,09,25,12,25,15.90
2009,09,25,12,26,15.90
2009,09,25,12,27,15.90
2009,09,25,12,28,15.90
2009,09,25,12,29,15.90
2009,09,25,12,30,16.00
2009,09,25,12,31,16.10
2009,09,25,12,32,16.20
2009,09,25,12,33,16.20
2009,09,25,12,34,16.30
2009,09,25,12,35,16.40
2009,09,25,12,36,16.50
2009,09,25,12,37,16.60
2009,09,25,12,38,16.60
2009,09,25,12,39,16.60
2009,09,25,12,40,16.70
2009,09,25,12,41,16.90
2009,09,25,12,42,17.00
2009,09,25,12,43,17.10
2009,09,25,12,44,17.10
2009,09,25,12,45,17.10
2009,09,25,12,46,17.10
2009,09,25,12,47,17.10
2009,09,25,12,48,17.10
2009,09,25,12,49,17.10
2009,09,25,12,50,17.10
2009,09,25,12,51,17.10
2009,09,25,12,52,17.10
2009,09,25,12,53,17.10
2009,09,25,12,54,17.10
2009,09,25,12,55,17.10
2009,09,25,12,56,17.10
2009,09,25,12,57,17.10
2009,09,25,12,58,17.10
2009,09,25,12,59,17.10
2009,09,25,13,00,17.20
2009,09,25,13,01,17.30
2009,09,25,13,02,17.40
2009,09,25,13,03,17.50
2009,09,25,13,04,17.50
2009,09,25,13,05,17.60
2009,09,25,13,06,17.50
2009,09,25,13,07,17.50
2009,09,25,13,08,17.50
2009,09,25,13,09,17.50
2009,09,25,13,10,17.50
2009,09,25,13,11,17.40
2009,09,25,13,12,17.20
2009,09,25,13,13,17.20
2009,09,25,13,14,17.20
2009,09,25,13,15,17.20
2009,09,25,13,16,17.20
2009,09,25,13,17,17.30
2009,09,25,13,18,17.30
2009,09,25,13,19,17.40
2009,09,25,13,20,17.40
2009,09,25,13,21,17.40
2009,09,25,13,22,17.40
2009,09,25,13,23,17.40
2009,09,25,13,24,17.40
2009,09,25,13,25,17.40
2009,09,25,13,26,17.40
2009,09,25,13,27,17.40
2009,09,25,13,28,17.30
2009,09,25,13,29,17.30
2009,09,25,13,30,17.30
2009,09,25,13,31,17.30
2009,09,25,13,32,17.20
2009,09,25,13,33,17.10
2009,09,25,13,34,17.10
2009,09,25,13,35,17.00
2009,09,25,13,36,17.00
2009,09,25,13,37,16.90
2009,09,25,13,38,16.90
2009,09,25,13,39,16.90
2009,09,25,13,40,16.90
2009,09,25,13,41,17.00
2009,09,25,13,42,17.00
2009,09,25,13,43,17.10
2009,09,25,13,44,17.10
2009,09,25,13,45,17.20
2009,09,25,13,46,17.20
2009,09,25,13,47,17.20
2009,09,25,13,48,17.20
2009,09,25,13,49,17.20
2009,09,25,13,50,17.20
2009,09,25,13,51,17.20
2009,09,25,13,52,17.20
2009,09,25,13,53,17.20
2009,09,25,13,54,17.20
2009,09,25,13,55,17.20
2009,09,25,13,56,17.20
2009,09,25,13,57,17.20
2009,09,25,13,58,17.20
2009,09,25,13,59,17.20
2009,09,25,14,00,17.20
2009,09,25,14,01,17.20
2009,09,25,14,02,17.20
2009,09,25,14,03,17.10
2009,09,25,14,04,17.10
2009,09,25,14,05,17.10
2009,09,25,14,06,17.10
2009,09,25,14,07,17.00
2009,09,25,14,08,17.00
2009,09,25,14,09,17.00
2009,09,25,14,10,17.10
2009,09,25,14,11,17.10
2009,09,25,14,12,17.20
2009,09,25,14,13,17.10
2009,09,25,14,14,17.10
2009,09,25,14,15,17.10
2009,09,25,14,16,17.10
2009,09,25,14,17,17.10
2009,09,25,14,18,17.10
2009,09,25,14,19,17.10
2009,09,25,14,20,17.10
2009,09,25,14,21,17.10
2009,09,25,14,22,17.20
2009,09,25,14,23,17.20
2009,09,25,14,24,17.20
2009,09,25,14,25,17.30
2009,09,25,14,26,17.40
2009,09,25,14,27,17.40
2009,09,25,14,28,17.40
2009,09,25,14,29,17.40
2009,09,25,14,30,17.30
2009,09,25,14,31,17.30
2009,09,25,14,32,17.40
2009,09,25,14,33,17.40
2009,09,25,14,34,17.50
2009,09,25,14,35,17.70
2009,09,25,14,36,17.80
2009,09,25,14,37,18.00
2009,09,25,14,38,18.10
2009,09,25,14,39,18.10
2009,09,25,14,40,18.10
2009,09,25,14,41,18.20
2009,09,25,14,42,18.20
2009,09,25,14,43,18.20
2009,09,25,14,44,18.30
2009,09,25,14,45,18.30
2009,09,25,14,46,18.40
2009,09,25,14,47,18.40
2009,09,25,14,48,18.40
2009,09,25,14,49,18.50
2009,09,25,14,50,18.50
2009,09,25,14,51,18.50
2009,09,25,14,52,18.40
2009,09,25,14,53,18.40
2009,09,25,14,54,18.50
2009,09,25,14,55,18.60
2009,09,25,14,56,18.60
2009,09,25,14,57,18.60
2009,09,25,14,58,18.50
2009,09,25,14,59,18.40
2009,09,25,15,00,18.40
2009,09,25,15,01,18.30
2009,09,25,15,02,18.30
2009,09,25,15,03,18.20
2009,09,25,15,04,18.20
2009,09,25,15,05,18.20
2009,09,25,15,06,18.20
2009,09,25,15,07,18.20
2009,09,25,15,08,18.20
2009,09,25,15,09,18.30
2009,09,25,15,10,18.30
2009,09,25,15,11,18.30
2009,09,25,15,12,18.40
2009,09,25,15,13,18.30
2009,09,25,15,14,18.30
2009,09,25,15,15,18.30
2009,09,25,15,16,18.30
2009,09,25,15,17,18.40
2009,09,25,15,18,18.30
2009,09,25,15,19,18.30
2009,09,25,15,20,18.30
2009,09,25,15,21,18.30
2009,09,25,15,22,18.20
2009,09,25,15,23,18.10
2009,09,25,15,24,18.10
2009,09,25,15,25,18.10
2009,09,25,15,26,18.20
2009,09,25,15,27,18.20
2009,09,25,15,28,18.30
2009,09,25,15,29,18.30
2009,09,25,15,30,18.40
2009,09,25,15,31,18.40
2009,09,25,15,32,18.50
2009,09,25,15,33,18.60
2009,09,25,15,34,18.60
2009,09,25,15,35,18.60
2009,09,25,15,36,18.60
2009,09,25,15,37,18.70
2009,09,25,15,38,18.70
2009,09,25,15,39,18.70
2009,09,25,15,40,18.80
2009,09,25,15,41,18.80
2009,09,25,15,42,18.90
2009,09,25,15,43,18.90
2009,09,25,15,44,19.00
2009,09,25,15,45,19.10
2009,09,25,15,46,19.10
2009,09,25,15,47,19.10
2009,09,25,15,48,19.10
2009,09,25,15,49,19.00
2009,09,25,15,50,18.90
2009,09,25,15,51,18.80
2009,09,25,15,52,18.70
2009,09,25,15,53,18.70
2009,09,25,15,54,18.60
2009,09,25,15,55,18.60
2009,09,25,15,56,18.60
2009,09,25,15,57,18.70
2009,09,25,15,58,18.70
2009,09,25,15,59,18.80
2009,09,25,16,00,18.90
2009,09,25,16,01,19.00
2009,09,25,16,02,19.20
2009,09,25,16,03,19.30
2009,09,25,16,04,19.40
2009,09,25,16,05,19.50
2009,09,25,16,06,19.60
2009,09,25,16,07,19.60
2009,09,25,16,08,19.50
2009,09,25,16,09,19.50
2009,09,25,16,10,19.50
2009,09,25,16,11,19.40
2009,09,25,16,12,19.40
2009,09,25,16,13,19.40
2009,09,25,16,14,19.30
2009,09,25,16,15,19.30
2009,09,25,16,16,19.20
2009,09,25,16,17,19.20
2009,09,25,16,18,19.10
2009,09,25,16,19,19.10
2009,09,25,16,20,19.00
2009,09,25,16,21,18.90
2009,09,25,16,22,18.90
2009,09,25,16,23,18.80
2009,09,25,16,24,18.80
2009,09,25,16,25,18.80
2009,09,25,16,26,18.80
2009,09,25,16,27,18.70
2009,09,25,16,28,18.70
2009,09,25,16,29,18.70
2009,09,25,16,30,18.70
2009,09,25,16,31,18.70
2009,09,25,16,32,18.70
2009,09,25,16,33,18.60
2009,09,25,16,34,18.60
2009,09,25,16,35,18.60
2009,09,25,16,36,18.60
2009,09,25,16,37,18.70
2009,09,25,16,38,18.70
2009,09,25,16,39,18.70
2009,09,25,16,40,18.80
2009,09,25,16,41,18.80
2009,09,25,16,42,18.80
2009,09,25,16,43,18.80
2009,09,25,16,44,18.90
2009,09,25,16,45,18.90
2009,09,25,16,46,18.90
2009,09,25,16,47,19.00
2009,09,25,16,48,19.00
2009,09,25,16,49,19.10
2009,09,25,16,50,19.10
2009,09,25,16,51,19.10
2009,09,25,16,52,19.10
2009,09,25,16,53,19.10
2009,09,25,16,54,19.10
2009,09,25,16,55,19.20
2009,09,25,16,56,19.30
2009,09,25,16,57,19.30
2009,09,25,16,58,19.30
2009,09,25,16,59,19.30
2009,09,25,17,00,19.30
2009,09,25,17,01,19.30
2009,09,25,17,02,19.30
2009,09,25,17,03,19.40
2009,09,25,17,04,19.50
2009,09,25,17,05,19.50
2009,09,25,17,06,19.50
2009,09,25,17,07,19.50
2009,09,25,17,08,19.40
2009,09,25,17,09,19.40
2009,09,25,17,10,19.30
2009,09,25,17,11,19.30
2009,09,25,17,12,19.20
2009,09,25,17,13,19.20
2009,09,25,17,14,19.20
2009,09,25,17,15,19.10
2009,09,25,17,16,19.00
2009,09,25,17,17,19.00
2009,09,25,17,18,18.90
2009,09,25,17,19,18.80